Weather WX

World > North America > United States > New Jersey

South Plainfield, New Jersey Regional Weather

Lat: 40.58N, Lon: 74.41W
Wx Zone: NJZ012
Warning FLW WEATHER ALERT - EXCESSIVE HEAT WARNING (More Info. Click Here) Warning
Feedback

South Plainfield, NJ Regional Weather

Expires:201907191100;;295611
ASUS41 KPHI 191012
RWRPHI

REGIONAL WEATHER ROUNDUP
NATIONAL WEATHER SERVICE MOUNT HOLLY NJ
600 AM EDT FRI JUL 19 2019

NOTE:  "FAIR" INDICATES FEW OR NO CLOUDS BELOW 12,000 FEET WITH NO
SIGNIFICANT WEATHER AND/OR OBSTRUCTIONS TO VISIBILITY.

 * = STATION DOES NOT REPORT PRECIPITATION (E.G. RAIN, SNOW, ETC.) 
        OR FOG.


NJZ001>014-191100-
NORTHERN NEW JERSEY
  
CITY           SKY/WX    TMP DP  RH WIND       PRES   REMARKS
SUSSEX         CLOUDY    72  70  93 CALM      29.91S FOG              
ANDOVER*         N/A     71  71 100 CALM      29.92F                  
MORRISTOWN     CLOUDY    72  72 100 CALM      29.91S FOG              
NEWARK         CLOUDY    73  69  87 CALM      29.90S                  
TETERBORO      CLOUDY    73  68  84 CALM      29.90S                  
CALDWELL       CLOUDY    73  71  93 CALM      29.92S                  
SOMERVILLE     CLOUDY    72  71  97 CALM      29.89F FOG              
ALLAIRE*       FOG       71  71 100 NW3       29.93R VSB 1/2          
TOMS RIVER*    FOG      N/A N/A N/A CALM      29.92R VSB 1/4          

$$

SKY/WX - Weather  TMP - Temperature  DP - Dew Point  RH - Relative Humidity
WIND - Wind Direction/Speed PRES - Barometric Pressure VSB - Visibility
WCI - Wind Chill Index E13G22 Wind - East Wind 13 mph/Gusts of 22 mph